Zurück zum Katalog

NADEZHDA 3

AktivNavigationPO
NORAD 21152·PAYLOAD·🇷🇺 Russia

Gestartet Mar 12, 1991 von Plesetsk Cosmodrome

Loading…

Nächste Überflüge (nächste 24 Stunden)

TLE

AktuellSource: Space-Track

Epoche: Sep 14, 2026, 08:43 UTC

1 21152U 91019A   26257.36326616  .00000024  00000-0  94407-5 0  9991
2 21152  82.9238 237.6135 0041390 186.5636 334.5785 13.74508946780405

Verfolge NADEZHDA 3 in Echtzeit mit AllMySat

Download on the App Store